Madison, MN

2:13 PM CDT on October 14, 2019 (GMT -0500)
Madison-Lac Qui Parle County

Weather History for KDXX - August, 2019

Change the Weather History Date:

Wednesday, August 7, 2019

  Actual Average (WUND) Record (WUND)
Temperature  
Mean Temperature 72 °F -  
Max Temperature 82 °F - - (-1)
Min Temperature 62 °F - - (-1)
Cooling Degree Days 7    
Growing Degree Days 22 (Base 50)    
Moisture  
Dew Point 61 °F    
Average Humidity 69    
Maximum Humidity 94    
Minimum Humidity 42    
Precipitation  
Precipitation 0.00 in - - ()
Sea Level Pressure  
Sea Level Pressure 29.85 in    
Wind  
Wind Speed 6 mph (NW)    
Max Wind Speed 15 mph    
Max Gust Speed 20 mph    
Visibility 10 miles    
Events      
Averages and records for this station are not official NWS values.
T = Trace of Precipitation, MM = Missing Value Source: NWS Daily Summary

Daily Weather History Graph

Daily Weather History Graph

Search for Another Location

Airport or City:

Astronomy

Aug. 07, 2019 Rise Set
Actual Time 6:16 AM CDT 8:43 PM CDT
Civil Twilight 5:43 AM CDT 9:16 PM CDT
Nautical Twilight 5:02 AM CDT 9:57 PM CDT
Astronomical Twilight 4:15 AM CDT 10:43 PM CDT
Moon 2:10 PM CDT (8/7) 12:12 AM CDT (8/7)
Length of Visible Light 15h 32m
Length of Day
14h 26m
Waxing Crescent, 50% of the Moon is Illuminated
Aug 7
Waxing Crescent
Aug 7
First Quarter
Aug 15
Full
Aug 23
Last Quarter
Aug 30
New

Hourly Weather History & Observations

Time (CDT) Temp. Heat Index Dew Point Humidity Pressure Visibility Wind Dir Wind Speed Gust Speed Precip Events Conditions
12:15 AM 68.0 °F - 60.8 °F 78% 29.79 in 10.0 mi SSW 5.8 mph - N/A   Clear
12:35 AM 69.8 °F - 59.0 °F 68% 29.78 in 10.0 mi Calm Calm - N/A   Clear
12:36 AM 69.8 °F - 59.0 °F 68% 29.78 in 10.0 mi Calm Calm - N/A   Clear
12:55 AM 66.2 °F - 59.0 °F 78% 29.78 in 10.0 mi Calm Calm - N/A   Clear
12:56 AM 66.2 °F - 59.0 °F 78% 29.77 in 10.0 mi Calm Calm - N/A   Clear
1:18 AM 64.4 °F - 60.8 °F 88% 29.78 in 10.0 mi South 3.5 mph - N/A   Clear
1:37 AM 66.2 °F - 59.0 °F 78% 29.78 in 10.0 mi South 4.6 mph - N/A   Clear
1:56 AM 66.2 °F - 59.0 °F 78% 29.79 in 10.0 mi SSW 4.6 mph - N/A   Clear
2:15 AM 66.2 °F - 60.8 °F 83% 29.80 in 10.0 mi SW 4.6 mph - N/A   Clear
2:16 AM 66.2 °F - 60.8 °F 83% 29.80 in 10.0 mi SSW 5.8 mph - N/A   Clear
2:35 AM 66.2 °F - 60.8 °F 83% 29.80 in 10.0 mi SW 4.6 mph - N/A   Clear
2:57 AM 66.2 °F - 60.8 °F 83% 29.81 in 10.0 mi Calm Calm - N/A   Clear
3:16 AM 64.4 °F - 60.8 °F 88% 29.80 in 10.0 mi Calm Calm - N/A   Clear
3:35 AM 64.4 °F - 59.0 °F 83% 29.81 in 10.0 mi NE 4.6 mph - N/A   Clear
3:36 AM 62.6 °F - 59.0 °F 88% 29.81 in 10.0 mi NE 4.6 mph - N/A   Clear
3:55 AM 64.4 °F - 60.8 °F 88% 29.81 in 10.0 mi NE 3.5 mph - N/A   Clear
3:56 AM 64.4 °F - 60.8 °F 88% 29.81 in 10.0 mi Calm Calm - N/A   Clear
4:19 AM 62.6 °F - 60.8 °F 94% 29.82 in 10.0 mi Calm Calm - N/A   Clear
4:36 AM 64.4 °F - 60.8 °F 88% 29.82 in 10.0 mi Calm Calm - N/A   Clear
4:56 AM 64.4 °F - 59.0 °F 83% 29.81 in 10.0 mi Calm Calm - N/A   Clear
5:15 AM 62.6 °F - 60.8 °F 94% 29.82 in 10.0 mi Calm Calm - N/A   Clear
5:35 AM 62.6 °F - 60.8 °F 94% 29.82 in 10.0 mi Calm Calm - N/A   Clear
5:58 AM 62.6 °F - 60.8 °F 94% 29.82 in 10.0 mi Calm Calm - N/A   Clear
6:15 AM 62.6 °F - 60.8 °F 94% 29.82 in 10.0 mi SW 3.5 mph - N/A   Clear
6:35 AM 62.6 °F - 60.8 °F 94% 29.82 in 10.0 mi WSW 3.5 mph - N/A   Clear
6:36 AM 62.6 °F - 60.8 °F 94% 29.82 in 10.0 mi West 3.5 mph - N/A   Clear
6:55 AM 62.6 °F - 60.8 °F 94% 29.82 in 10.0 mi Calm Calm - N/A   Clear
6:56 AM 62.6 °F - 60.8 °F 94% 29.82 in 10.0 mi Calm Calm - N/A   Clear
7:18 AM 64.4 °F - 62.6 °F 94% 29.83 in 10.0 mi West 4.6 mph - N/A   Clear
7:37 AM 66.2 °F - 62.6 °F 88% 29.83 in 10.0 mi NW 3.5 mph - N/A   Clear
7:56 AM 68.0 °F - 62.6 °F 83% 29.84 in 10.0 mi NW 5.8 mph - N/A   Clear
8:15 AM 69.8 °F - 62.6 °F 78% 29.83 in 10.0 mi WNW 4.6 mph - N/A   Clear
8:16 AM 69.8 °F - 62.6 °F 78% 29.83 in 10.0 mi WNW 5.8 mph - N/A   Clear
8:35 AM 71.6 °F - 62.6 °F 73% 29.84 in 10.0 mi WNW 5.8 mph - N/A   Clear
8:58 AM 73.4 °F - 62.6 °F 69% 29.84 in 10.0 mi NW 6.9 mph - N/A   Clear
9:16 AM 75.2 °F - 62.6 °F 65% 29.84 in 10.0 mi WNW 8.1 mph - N/A   Clear
9:35 AM 75.2 °F - 64.4 °F 69% 29.85 in 10.0 mi NW 11.5 mph - N/A   Scattered Clouds
9:36 AM 75.2 °F - 64.4 °F 69% 29.85 in 10.0 mi NW 10.4 mph - N/A   Scattered Clouds
9:55 AM 75.2 °F - 64.4 °F 69% 29.84 in 10.0 mi NW 11.5 mph - N/A   Scattered Clouds
9:56 AM 75.2 °F - 64.4 °F 69% 29.85 in 10.0 mi NW 10.4 mph - N/A   Scattered Clouds
10:19 AM 77.0 °F - 64.4 °F 65% 29.85 in 10.0 mi NNW 12.7 mph - N/A   Clear
10:36 AM 78.8 °F - 66.2 °F 65% 29.85 in 10.0 mi NW 8.1 mph - N/A   Scattered Clouds
10:56 AM 78.8 °F - 64.4 °F 61% 29.85 in 10.0 mi North 9.2 mph - N/A   Clear
11:15 AM 80.6 °F 82.3 °F 64.4 °F 58% 29.85 in 10.0 mi NNW 9.2 mph - N/A   Clear
11:16 AM 80.6 °F 82.3 °F 64.4 °F 58% 29.85 in 10.0 mi NNW 10.4 mph - N/A   Clear
11:35 AM 82.4 °F 83.4 °F 62.6 °F 51% 29.86 in 10.0 mi NW 11.5 mph - N/A   Clear
11:58 AM 82.4 °F 83.4 °F 62.6 °F 51% 29.86 in 10.0 mi NW 10.4 mph - N/A   Clear
12:15 PM 82.4 °F 82.9 °F 60.8 °F 48% 29.86 in 10.0 mi NNW 11.5 mph - N/A   Clear
12:35 PM 82.4 °F 82.9 °F 60.8 °F 48% 29.86 in 10.0 mi NW 12.7 mph 17.3 mph N/A   Scattered Clouds
12:36 PM 82.4 °F 82.9 °F 60.8 °F 48% 29.86 in 10.0 mi NW 11.5 mph 17.3 mph N/A   Scattered Clouds
12:55 PM 82.4 °F 82.9 °F 60.8 °F 48% 29.88 in 10.0 mi NNW 15.0 mph 19.6 mph N/A   Scattered Clouds
12:56 PM 82.4 °F 82.9 °F 60.8 °F 48% 29.88 in 10.0 mi NNW 15.0 mph 19.6 mph N/A   Scattered Clouds
1:18 PM 82.4 °F 82.9 °F 60.8 °F 48% 29.88 in 10.0 mi NNW 12.7 mph - N/A   Scattered Clouds
1:37 PM 80.6 °F 80.8 °F 57.2 °F 45% 29.86 in 10.0 mi NNW 10.4 mph - N/A   Clear
1:56 PM 82.4 °F 82.9 °F 60.8 °F 48% 29.87 in 10.0 mi NW 10.4 mph - N/A   Clear
2:15 PM 82.4 °F 82.5 °F 59.0 °F 45% 29.87 in 10.0 mi NW 10.4 mph - N/A   Clear
2:16 PM 82.4 °F 82.0 °F 57.2 °F 42% 29.87 in 10.0 mi NW 10.4 mph - N/A   Clear
2:35 PM 82.4 °F 82.9 °F 60.8 °F 48% 29.86 in 10.0 mi NNW 11.5 mph - N/A   Clear
2:57 PM 82.4 °F 82.5 °F 59.0 °F 45% 29.86 in 10.0 mi North 11.5 mph 16.1 mph N/A   Clear
3:16 PM 82.4 °F 82.9 °F 60.8 °F 48% 29.87 in 10.0 mi NW 11.5 mph 17.3 mph N/A   Clear
3:35 PM 82.4 °F 83.4 °F 62.6 °F 51% 29.87 in 10.0 mi NNW 10.4 mph - N/A   Scattered Clouds
3:36 PM 82.4 °F 83.4 °F 62.6 °F 51% 29.87 in 10.0 mi NNW 13.8 mph 19.6 mph N/A   Scattered Clouds
3:55 PM 82.4 °F 83.4 °F 62.6 °F 51% 29.87 in 10.0 mi NW 9.2 mph - N/A   Scattered Clouds
3:56 PM 82.4 °F 83.4 °F 62.6 °F 51% 29.87 in 10.0 mi NW 9.2 mph - N/A   Clear
4:19 PM 82.4 °F 83.4 °F 62.6 °F 51% 29.87 in 10.0 mi NNW 9.2 mph 12.7 mph N/A   Clear
4:36 PM 82.4 °F 83.4 °F 62.6 °F 51% 29.87 in 10.0 mi NNW 10.4 mph - N/A   Clear
4:56 PM 82.4 °F 83.4 °F 62.6 °F 51% 29.87 in 10.0 mi NW 9.2 mph - N/A   Clear
5:15 PM 82.4 °F 83.4 °F 62.6 °F 51% 29.87 in 10.0 mi NW 9.2 mph - N/A   Clear
5:16 PM 82.4 °F 83.4 °F 62.6 °F 51% 29.87 in 10.0 mi NNW 9.2 mph - N/A   Clear
5:35 PM 82.4 °F 83.4 °F 62.6 °F 51% 29.87 in 10.0 mi NW 11.5 mph 16.1 mph N/A   Clear
5:39 PM 82.4 °F 83.4 °F 62.6 °F 51% 29.87 in 10.0 mi NW 10.4 mph - N/A   Clear
5:58 PM 80.6 °F 82.3 °F 64.4 °F 58% 29.87 in 10.0 mi NNW 10.4 mph - N/A   Scattered Clouds
6:15 PM 82.4 °F 83.4 °F 62.6 °F 51% 29.87 in 10.0 mi North 13.8 mph - N/A   Clear
6:35 PM 80.6 °F 81.8 °F 62.6 °F 54% 29.86 in 10.0 mi NNW 12.7 mph - N/A   Clear
6:36 PM 80.6 °F 81.8 °F 62.6 °F 54% 29.86 in 10.0 mi NNW 13.8 mph - N/A   Clear
6:55 PM 80.6 °F 81.8 °F 62.6 °F 54% 29.86 in 10.0 mi NNW 11.5 mph - N/A   Clear
7:18 PM 78.8 °F - 62.6 °F 57% 29.86 in 10.0 mi North 12.7 mph 18.4 mph N/A   Clear
7:37 PM 77.0 °F - 64.4 °F 65% 29.87 in 10.0 mi North 13.8 mph - N/A   Clear
7:56 PM 75.2 °F - 62.6 °F 65% 29.88 in 10.0 mi North 15.0 mph - N/A   Clear
8:15 PM 73.4 °F - 60.8 °F 65% 29.89 in 10.0 mi North 11.5 mph - N/A   Clear
8:16 PM 73.4 °F - 60.8 °F 65% 29.89 in 10.0 mi NNW 10.4 mph - N/A   Clear
8:35 PM 73.4 °F - 60.8 °F 65% 29.89 in 10.0 mi NNW 10.4 mph - N/A   Clear
8:57 PM 71.6 °F - 60.8 °F 69% 29.89 in 10.0 mi NNW 8.1 mph - N/A   Clear
9:16 PM 71.6 °F - 60.8 °F 69% 29.90 in 10.0 mi NNW 8.1 mph - N/A   Clear
9:35 PM 69.8 °F - 60.8 °F 73% 29.91 in 10.0 mi NNW 6.9 mph - N/A   Clear
9:36 PM 69.8 °F - 60.8 °F 73% 29.91 in 10.0 mi NNW 6.9 mph - N/A   Clear
9:55 PM 69.8 °F - 60.8 °F 73% 29.93 in 10.0 mi NNW 8.1 mph - N/A   Clear
9:56 PM 68.0 °F - 60.8 °F 78% 29.93 in 10.0 mi NNW 8.1 mph - N/A   Clear
10:19 PM 66.2 °F - 60.8 °F 83% 29.93 in 10.0 mi NW 6.9 mph - N/A   Clear
10:36 PM 66.2 °F - 60.8 °F 83% 29.93 in 10.0 mi NW 5.8 mph - N/A   Clear
10:56 PM 66.2 °F - 59.0 °F 78% 29.94 in 10.0 mi NW 5.8 mph - N/A   Clear
11:15 PM 64.4 °F - 59.0 °F 83% 29.94 in 10.0 mi NW 5.8 mph - N/A   Clear
11:16 PM 64.4 °F - 59.0 °F 83% 29.94 in 10.0 mi NW 5.8 mph - N/A   Clear
11:35 PM 64.4 °F - 59.0 °F 83% 29.94 in 10.0 mi NNW 6.9 mph - N/A   Clear
11:39 PM 64.4 °F - 59.0 °F 83% 29.94 in 10.0 mi NNW 8.1 mph - N/A   Clear
11:58 PM 64.4 °F - 59.0 °F 83% 29.94 in 10.0 mi NNW 8.1 mph - N/A   Clear